Millville Municipal Airport

Jump to: basic info | weather | frequencies | runways | comments

Related pages: nearby airports | nearby navaids | notams | map

Basic information (top)

Codes: KMIV MIV
Location: lon 39.367802, lat -75.072197, elev 85 ft / 26 m msl
Status: medium_airport
Scheduled airline service: no
Links: Wikipedia Mobile

Weather (top)

Current conditions (rec'd 2014/10/24 19:54Z):

KMIV 241954Z AUTO 30011KT 10SM CLR 19/08 A2981

Airport forecast (rec'd 2014/10/24 18:36Z):

TAF KMIV 241731Z 2418/2518 31013G23KT P6SM FEW045 
     FM242300 30005KT P6SM SCT200 
     FM251700 28010G17KT P6SM SKC

Frequencies (top)

Verify before use: may be inaccurate or out of date.

A/D: 124.6 MHz (APP/DEP)
ASOS: 128.125 MHz (ASOS)
CTAF: 123.65 MHz (CTAF)
RDO: 123.65 MHz (RDO)
UNIC: 123 MHz (UNICOM)

Runways (top)

10/28: 6,002 x 150 ft (1,829 x 46 m) — paved — lighted

14/32: 5,057 x 150 ft (1,541 x 46 m) — paved — lighted

Latest comments (top)

No comments yet for Millville Municipal Airport

More... (top)

See also NOTAMs and nearby airports and navaids, or visit the Millville Municipal Airport page at the main OurAirports website..